Regional Weather Roundup
Issued by NWS Mobile, AL

Home | Current Version | Previous Version | Text Only | Print | Product List | Glossary On
Versions: 1 2 3 4 5 6 7 8 9 10 11 12 13 14 15 16 17 18 19 20 21 22 23 24 25 26 27 28 29 30 31 32 33 34 35 36 37 38 39 40 41 42 43 44 45 46 47 48 49 50
000
ASUS44 KMOB 162212
RWRMOB
REGIONAL WEATHER ROUNDUP
NATIONAL WEATHER SERVICE MOBILE AL
400 PM CST MON JAN 16 2017

NOTE: "FAIR" INDICATES FEW OR NO CLOUDS BELOW 12,000 FEET WITH NO
      SIGNIFICANT WEATHER AND/OR OBSTRUCTIONS TO VISIBILITY.

  * THESE STATIONS ARE PART OF THE UNIVERSITY OF SOUTH ALABAMA
    MESONET AND ARE NOT UNDER NWS OR FAA QUALITY CONTROL.

ALZ061>064-162300-
COASTAL ALABAMA

CITY           SKY/WX    TMP DP  RH WIND       PRES   REMARKS
MOBILE REG APT PTSUNNY   73  63  70 SE12      30.17R
BROOKLEY FIELD MOSUNNY   73  66  78 S12       30.17S
USA CAMPUS*      N/A     72  64  78 SW3       30.16S
DOG RIVER*       N/A     72  66  83 SE8       30.96S


CITY           SKY/WX    TMP DP  RH WIND       PRES   REMARKS
GULF SHORES    SUNNY     73  70  89 E8        30.17S

$$

ALZ051>060-162300-
INTERIOR SOUTHWEST AND SOUTH CENTRAL ALABAMA

CITY           SKY/WX    TMP DP  RH WIND       PRES   REMARKS
GREENVILLE     SUNNY     76  54  46 S9        30.16S
EVERGREEN      MOSUNNY   77  59  53 SE13      30.17R
ATMORE*          N/A     72  63  73 S12       30.18S
ANDALUSIA/OPP  MOSUNNY   77  55  46 SE8       30.18S
ANDALUSIA*       N/A     73  59  60 SE9       30.19R
FLORALA APT    SUNNY     74  54  49 S15G22    30.21R
FLORALA*         N/A     73  57  56 E3        30.95S

$$

FLZ001>006-162300-
WESTERN FLORIDA PANHANDLE

CITY           SKY/WX    TMP DP  RH WIND       PRES   REMARKS
PENSACOLA      PTSUNNY   72  66  81 SE12      30.18S
NAS PENSACOLA  MOSUNNY   72  67  84 SE12      30.17S
MILTON           N/A    N/A N/A N/A MISG      30.18R
WHTNG S FIELD  PTSUNNY   75  66  73 SE15G23   30.19R


CITY           SKY/WX    TMP DP  RH WIND       PRES   REMARKS
JAY*             N/A     73  63  68 S15       30.18R
DUKE FIELD     MOSUNNY   71  60  67 S10       30.19R
CRESTVIEW      MOSUNNY   73  59  61 SE8       30.21R
VALPARAISO     PTSUNNY   68  63  82 SE7       30.20R
DESTIN         CLOUDY    70  65  84 SE10      30.19S

$$

MSZ076-079-162300-
INTERIOR SOUTHEAST MISSISSIPPI

CITY           SKY/WX    TMP DP  RH WIND       PRES   REMARKS
LEAKESVILLE*   NOT AVBL
AGRICOLA*      NOT AVBL

$$

MARINE OBSERVATIONS

STATION/POSITION TIME  TEMP    WIND        PRES    WAVE
                       AIR SEA DIR/SP/G            HT/PER
                 (UTC) (F)     (DEG/KT/KT) (MB)    (FT/S)
PASCAGOULA       2148   72     130/  9/ 14 1021.1R
PETIT BOIS ISLND 2148   71     120/ 11/ 14 1021.7S
GRAND BAY        2030   71     120/ 11     1022.0S
KATRINA CUT      2130          110/ 12     1021.0R
CEDAR POINT      2100   69     130/  7     1021.3
E DAUPHIN ISLAND 2100   69     110/ 11/ 12 1020.8F
MIDDLE BAY LIGHT 2130   68     120/ 10     1021.3S
USCG MOBILE BAY  2148   70 61  170/  6/ 11 1021.9R
STATE DOCKS      2148   72 58              1021.3R
MEAHER PARK      2030   70     190/  9     1021.3F
WEEKS BAY        2045   76                   N/A
FORT MORGAN      2148   68     100/ 15/ 18   N/A
12 S ORANGE BCH  2150   68 66  100/  8/  8 1021.2S   4/ 6
PENSACOLA BAY    2148   75 63   90/  1/  4 1022.0S
67 S FORT MORGAN 2130   72                 1021.0R

$$

SELECTED LOCATIONS ACROSS THE REGION

CITY           SKY/WX    TMP DP  RH WIND       PRES   REMARKS
NEW ORLEANS    PTSUNNY   75  66  73 S16       30.10R
GULFPORT       PTSUNNY   73  66  78 SE14      30.14S
PASCAGOULA AP  MOSUNNY   75  63  66 SE13      30.16R
PASCAGOULA*    NOT AVBL
HATTIESBURG    PTSUNNY   76  58  53 S15G23    30.12S
LAUREL         CLOUDY    75  57  53 S13       30.13S
MERIDIAN       PTSUNNY   77  59  53 S15G22    30.11S
JACKSON        CLOUDY    75  60  59 S17       30.07S
MONTGOMERY     MOSUNNY   79  51  37 S9        30.16F
TROY           MOSUNNY   76  53  44 S10       30.19S
ASHFORD*         N/A     73  59  60 SE9       30.19R
DOTHAN         PTSUNNY   75  56  51 S8        30.23R
PANAMA CITY    PTSUNNY   71  59  65 SE10      30.20R

$$




USA.gov is the U.S. government's official web portal to all federal, state and local government web resources and services.